{"data":{"norad_id":66014,"intl_designator":"2025-232K","name":"STARLINK-35395","alt_names":[],"object_type":"PAYLOAD","status":"ACTIVE","operator":null,"country":"US","launch_date":"2025-10-16","launch_site_code":"AFETR","launch_vehicle":null,"mission":null,"orbit_class":"UNKNOWN","rcs_meters":null,"size_class":null,"mass_kg":null,"dimensions":null,"purposes":["comms"],"wikipedia_slug":null,"has_3d_model":false,"image_url":null,"decayed_at":null,"tle_current":{"epoch":"2026-09-20T08:09:45.740736Z","epoch_age_seconds":116889,"freshness":"FRESH","line1":"1 66014U 25232K   26263.34011274  .00004728  00000+0  15098-3 0  9998","line2":"2 66014  53.1579 278.6286 0001311  86.6808 273.4345 15.34397784 53254","mean_motion":15.34397784,"eccentricity":0.0001311,"inclination_deg":53.1579,"raan_deg":278.6286,"arg_perigee_deg":86.6808,"mean_anomaly_deg":273.4345,"bstar":0.00015098,"rev_number":5325,"period_min":93.847893617657,"perigee_km":461.81299161506,"apogee_km":463.606661653,"semimajor_km":6840.846826634,"source":"CELESTRAK","updated_at":"2026-09-21T09:00:35.769947Z"}}}